Погода в Угловом

Россия / Амурская область     51°56′19″N   129°21′50″E
темп.,
°C
ветер,
м/с
пор.,
м/с
влажн.,
%
обл.,
%
осадки,
мм/ч
давл.,
гПа
погр.,
м
26 февраля, пт
пт2600:00−25сз228978 0.0 103020
03:00−25зсз239285 0.0 103020
06:00−27сз229724 0.0 103219
09:00−23сз119412 0.0 103372
12:00−18сз228472 0.0 1034395
15:00−15сз237986 0.0 1034648
18:00−21вюв019597 0.0 103420
21:00−23ююв129869 0.0 103520
27 февраля, сб
сб2700:00−25ююв1110035 0.0 103620
03:00−24вюв239967 0.0 103421
06:00−24вюв3496100 0.0 103261
09:00−20вюв3589100 0.0 1028246
12:00−15юв61087100 0.2 1023478
15:00−10ююв71393100 1.1 1015800
18:00−9ююв61295100 3.1 1012714
21:00−10ю51194100 4.9 1011556
28 февраля, вс
вс2800:00−11з4895100 0.4 1012245
03:00−16зсз6128998 0.5 1015388
06:00−22з510890 0.0 1019155
09:00−20з511850 0.0 1023480
12:00−17з710730 0.0 1024896
15:00−16зсз8117027 0.0 10251336
18:00−19зсз51177100 0.0 1028284
21:00−22зсз5118285 0.0 1030247
1 марта, пн
пн100:00−25зсз511820 0.0 1031185
03:00−26з511770 0.0 1033185
06:00−28зсз510750 0.0 1034152
09:00−26зсз510760 0.0 1034318
12:00−21зсз69670 0.0 10331046
15:00−19зсз796613 0.0 10331400
18:00−22зсз3380100 0.0 103337
21:00−24з348590 0.0 103457
2 марта, вт
вт200:00−27з338876 0.0 103323
03:00−29з348837 0.0 103327
06:00−30з23900 0.0 103419
09:00−27зсз23887 0.0 1033130
12:00−23з22630 0.0 1032477
15:00−19зсз23600 0.0 1030928
18:00−25юз007869 0.0 102920
21:00−28юв119570 0.0 102919